This is the latest recevied weather packets stored in our database for station/object KQ4NAL. If no packets are shown the sender has not sent any weather packets the latest 10 day(s).
| Time | Temp. | Humidity | Pressure | Rain* | Wind** | Luminosity | Snow |
|---|---|---|---|---|---|---|---|
| 1777498978 | 17.78° C | 68% | 1011.6 hPa | 0 mm | - | 103 W/m² | - |
| 1777498673 | 17.78° C | 69% | 1011.7 hPa | 0 mm | - | 418 W/m² | - |
| 1777498370 | 17.78° C | 67% | 1011.5 hPa | 0 mm | - | 159 W/m² | - |
| 1777498067 | 17.78° C | 67% | 1011.6 hPa | 0 mm | - | 88 W/m² | - |
| 1777497764 | 18.33° C | 66% | 1011.7 hPa | 0 mm | - | 474 W/m² | - |
| 1777497461 | 18.33° C | 68% | 1011.6 hPa | 0 mm | - | 187 W/m² | - |
| 1777497157 | 18.33° C | 68% | 1011.4 hPa | 0 mm | - | 502 W/m² | - |
| 1777496854 | 18.89° C | 66% | 1011.4 hPa | 0 mm | - | 399 W/m² | - |
| 1777496551 | 18.89° C | 68% | 1011.6 hPa | 0 mm | - | 519 W/m² | - |
| 1777496247 | 18.33° C | 67% | 1011.6 hPa | 0 mm | - | 518 W/m² | - |
| 1777495943 | 18.33° C | 69% | 1011.9 hPa | 0 mm | - | 226 W/m² | - |
| 1777495639 | 17.78° C | 69% | 1011.9 hPa | 0 mm | - | 261 W/m² | - |
| 1777495335 | 18.89° C | 69% | 1011.5 hPa | 0 mm | - | 268 W/m² | - |
| 1777495033 | 18.33° C | 68% | 1011.7 hPa | 0 mm | - | 615 W/m² | - |
| 1777494730 | 18.89° C | 69% | 1011.6 hPa | 0 mm | - | 662 W/m² | - |
| 1777494427 | 17.78° C | 70% | 1011.6 hPa | 0 mm | - | 405 W/m² | - |
| 1777494123 | 17.78° C | 72% | 1011.3 hPa | 0 mm | - | 245 W/m² | - |
| 1777493820 | 18.33° C | 72% | 1011.5 hPa | 0 mm | - | 193 W/m² | - |
| 1777493518 | 18.89° C | 68% | 1011.5 hPa | 0 mm | - | 661 W/m² | - |
| 1777493216 | 17.78° C | 73% | 1011.5 hPa | 0 mm | - | 636 W/m² | - |
| 1777492912 | 17.22° C | 73% | 1011.3 hPa | 0 mm | - | 298 W/m² | - |
| 1777492609 | 17.78° C | 73% | 1011.8 hPa | 0 mm | - | 198 W/m² | - |
| 1777492304 | 17.78° C | 73% | 1011.6 hPa | 0 mm | - | 276 W/m² | - |
| 1777492001 | 17.22° C | 74% | 1011.8 hPa | 0 mm | - | 257 W/m² | - |
| 1777491698 | 17.22° C | 73% | 1011.9 hPa | 0 mm | - | 199 W/m² | - |
* Rain latest hour (hover to see other rain measurements)
** Current wind speed in m/s (hover to see current wind gust speed)